Flag for Russia Weather past 2 weeks in Sochi, Russia

Now
81 °F

Passing clouds.


Feels Like: 84 °F
Forecast: 68 / 88 °F
Wind: No wind

Location: Adler

Current Time: Aug 22, 2014 at 10:28:13 AM

Latest Report: Aug 22, 2014 at 9:30 AM


Visibility: N/A

Pressure: 29.95 "Hg

Humidity: 70%

Dew point: 70 °F

Location of SochiLocation

Historic Weather in Sochi — Graph

°F

Sochi temperature yesterday

Maximum temperature yesterday: 84 °F (at 1:00 PM)
Minimum temperature yesterday: 70 °F (at 6:00 AM)
Average temperature yesterday: 77 °F

Past Weeks' High & Low Weather Summary

 TemperatureHumidityPressure
High91 °F (Aug 15, 12:30 PM)94% (Aug 19, 9:00 AM)30.01 "Hg (Aug 19, 9:00 AM)
Low68 °F (Aug 8, 5:30 AM)41% (Aug 15, 12:30 PM)29.56 "Hg (Aug 17, 8:30 PM)
Average78 °F72%29.82 "Hg
* Reported Aug 7 9:00 AM — Aug 22 9:00 AM, Sochi, Weather by CustomWeather, © 2014

Note: Actual official high and low records may vary slightly from our data, if they occured in-between our weather recording intervals... More about our weather records

Advertising

Sochi weather history for previous 24 hours

 ConditionsComfort  
Time TempWeatherWind HumidityBarometerVisibility
9:00 AM
Aug 22
77 °FPassing clouds.3 mph74%29.95 "HgN/A
8:30 AM75 °FPassing clouds.3 mph78%29.95 "HgN/A
8:00 AM73 °FPassing clouds.6 mph83%29.95 "HgN/A
7:30 AM72 °FPassing clouds.6 mph83%29.95 "HgN/A
7:00 AM70 °FPassing clouds.8 mph88%29.92 "HgN/A
6:30 AM70 °FPassing clouds.6 mph88%29.92 "HgN/A
6:00 AM70 °FClear.3 mph88%29.92 "HgN/A
5:30 AM72 °FClear.6 mph88%29.92 "HgN/A
5:00 AM72 °FClear.6 mph88%29.92 "HgN/A
4:30 AM72 °FClear.6 mph88%29.92 "HgN/A
4:00 AM72 °FClear.6 mph88%29.92 "HgN/A
3:30 AM72 °FClear.6 mph88%29.92 "HgN/A
3:00 AM72 °FClear.6 mph88%29.92 "HgN/A
2:30 AM72 °FClear.6 mph88%29.92 "HgN/A
2:00 AM72 °FClear.6 mph88%29.95 "HgN/A
1:30 AM73 °FClear.6 mph83%29.95 "HgN/A
1:00 AM73 °FClear.6 mph83%29.95 "HgN/A
12:30 AM73 °FClear.3 mph83%29.95 "HgN/A
12:00 AM72 °FClear.3 mph88%29.92 "HgN/A
11:30 PM
Aug 21
73 °FClear.3 mph89%29.92 "HgN/A
11:00 PM73 °FClear.1 mph89%29.92 "HgN/A
10:30 PM75 °FPassing clouds.3 mph83%29.92 "HgN/A
10:00 PM75 °FPassing clouds.3 mph83%29.92 "HgN/A
9:30 PM77 °FPassing clouds.3 mph79%29.92 "HgN/A
9:00 PM79 °FPassing clouds.3 mph70%29.92 "HgN/A
8:30 PM79 °FPassing clouds.3 mph74%29.92 "HgN/A
8:00 PM79 °FPassing clouds.3 mph70%29.92 "HgN/A
7:30 PM81 °FPassing clouds.6 mph70%29.92 "HgN/A
7:00 PM82 °FPassing clouds.3 mph66%29.92 "HgN/A
6:30 PM82 °FPassing clouds.6 mph62%29.92 "HgN/A
6:00 PM82 °FPassing clouds.6 mph62%29.92 "HgN/A
5:30 PM82 °FPassing clouds.6 mph66%29.92 "HgN/A
5:00 PM82 °FPassing clouds.8 mph66%29.95 "HgN/A
4:30 PM82 °FPassing clouds.6 mph62%29.95 "HgN/A
4:00 PM82 °FPassing clouds.6 mph62%29.95 "HgN/A
3:30 PM82 °FPassing clouds.8 mph62%29.95 "HgN/A
3:00 PM84 °FPassing clouds.6 mph62%29.95 "HgN/A
2:30 PM84 °FPassing clouds.3 mph58%29.95 "HgN/A
2:00 PM82 °FPassing clouds.6 mph62%29.95 "HgN/A
1:30 PM84 °FPassing clouds.8 mph62%29.95 "HgN/A
1:00 PM84 °FScattered clouds.6 mph58%29.95 "HgN/A
12:30 PM82 °FPartly sunny.3 mph55%29.95 "HgN/A
12:00 PM81 °FPartly sunny.3 mph58%29.98 "HgN/A
11:30 AM81 °FPartly sunny.6 mph62%29.98 "HgN/A
11:00 AM82 °FScattered clouds.1 mph62%29.95 "HgN/A
10:30 AM81 °FPartly sunny.3 mph66%29.95 "HgN/A
10:00 AM79 °FPartly sunny.1 mph70%29.95 "HgN/A
Weather by CustomWeather, © 2014

See weather overviewHow to use our weather pages